Location: Fosse-Bellay
(47.1819°N, 0.1659°W)
Time: 21:24:50
(UTC+00:00)

Daily predictions for brighter satellites

Satellite Brightness Start Highest point End
(mag) Time Altitude Azimuth Time Altitude Azimuth Time Altitude Azimuth
In-Cosmos 22 Rocket 4.3 19:16:39 10° N 19:22:31 78° ENE 19:28:20 10° SSE
ATLAS 2AS CENTAUR R/B 3.1 19:15:08 10° SSW 19:22:57 69° ESE 19:30:42 10° NE
Cosmos 2098 Rocket 4.5 19:18:06 10° N 19:25:09 62° ENE 19:32:28 10° SSE
Cosmos 2237 Rocket 3.5 19:21:24 10° N 19:26:04 25° NE 19:30:41 10° ESE
USA 186 1.7 19:24:03 10° SSE 19:27:15 69° ENE 19:30:20 10° N
Cosmos 2251 Rocket 4.3 19:22:59 10° SSE 19:27:38 31° E 19:32:18 10° NE
Cosmos 389 Rocket 4.5 19:27:08 10° ESE 19:28:37 12° E 19:30:07 10° ENE
Cosmos 1689 Rocket 2.9 19:26:07 10° N 19:28:55 53° WNW 19:31:40 10° SSW
Exosat Rocket 4.2 19:24:11 10° NNW 19:30:47 50° NE 19:35:52 10° SE
Cosmos 1092 Rocket 4.1 19:24:37 10° N 19:30:51 61° ENE 19:36:57 10° SSE
Cosmos 1825 Rocket 4.1 19:31:44 10° NNW 19:36:05 62° W 19:40:26 10° S
SJ-6B 2.7 19:32:30 10° SSE 19:36:11 64° ENE 19:39:56 10° N
Ariane Rocket 3.3 19:31:54 10° SE 19:36:46 51° ENE 19:41:39 10° N
BREEZE-M DEB (TANK) 3.4 19:32:48 10° SSW 19:37:22 25° SSE 19:39:37 10° E
Cosmos 1892 2.7 19:36:05 10° N 19:39:53 83° W 19:43:40 10° S
Resurs 01 Rocket 2.8 19:36:25 10° ESE 19:40:10 27° ENE 19:43:56 10° N
Cosmos 2227 Rocket 3.9 19:40:40 10° ESE 19:43:04 13° E 19:45:28 10° ENE
MOS 1 4.4 19:38:38 10° SSE 19:44:11 63° ENE 19:49:47 10° N
Resurs 1-3 3.8 19:44:46 10° SSE 19:49:01 52° ENE 19:53:18 10° N
Cosmos 1825 2.3 19:46:06 10° N 19:49:50 57° ENE 19:53:33 10° SSE
Cosmos 2297 Rocket 3.5 19:46:10 10° SE 19:50:02 19° E 19:53:54 10° NE
Cosmos 1408 2.6 19:46:47 10° N 19:50:21 81° W 19:53:53 10° S
IRS-1A Rocket 4.3 19:45:23 10° SSE 19:50:55 71° ENE 19:56:36 10° NNW
Cosmos 44 3.5 19:47:14 10° SSW 19:52:12 56° ESE 19:57:27 10° NE
Cosmos 2333 Rocket 2.5 19:46:51 10° NNW 19:52:38 73° WSW 19:58:19 10° SSE
Cosmos 614 Rocket 4.5 19:48:39 10° SSE 19:53:19 36° ESE 19:57:58 10° NE
CZ-4 R/B 4.4 19:50:53 10° SW 19:53:28 16° W 19:56:05 10° NW
Cosmos 2219 4.5 19:50:33 10° SE 19:54:18 19° E 19:58:06 10° ENE
COSMOS 2487 2.9 19:51:52 10° SSW 19:55:14 63° WNW 19:58:38 10° NNE
Cosmos 1428 Rocket 4.5 19:52:17 10° N 19:58:34 77° E 20:04:52 10° SSE
Cosmos 1992 Rocket 4.1 19:53:20 10° NNW 19:58:35 81° WSW 20:03:47 10° SSE
ATLAS 3B R/B 2.8 19:54:04 10° NW 20:01:07 86° NE 20:07:46 13° SE
Cosmos 2322 4.2 19:56:57 10° NNW 20:02:31 59° WSW 20:08:02 10° S
FALCON 9 DEB 3.1 20:00:21 10° SW 20:03:43 64° SSE 20:07:08 10° ENE
Cosmos 2279 Rocket 4.2 19:59:47 10° SSE 20:05:41 49° E 20:11:37 10° NNE
USA 215 3.6 20:00:59 12° E 20:07:02 58° NNE 20:13:26 10° NW
SL-4 R/B 4.1 20:08:35 10° SSE 20:09:22 13° SSE 20:09:22 13° SSE
Cosmos 2026 Rocket 4.0 20:06:49 10° N 20:12:55 84° W 20:19:03 10° S
SL-8 R/B 4.0 20:10:31 10° WNW 20:15:16 57° SSW 20:18:25 20° SE
Orbus 7S? 3.2 20:14:03 10° SW 20:16:51 84° NNW 20:22:01 10° NE
Cosmos 407 Rocket 4.1 20:14:06 10° SSE 20:18:37 33° ESE 20:23:11 10° NE
RESURS DK-1 2.5 20:15:16 10° SSW 20:19:23 77° WNW 20:23:33 10° NNE
IRIDIUM 114 4.5 20:15:00 10° SSE 20:19:59 53° E 20:25:03 10° NNE
SL-16 R/B 3.6 20:16:09 10° N 20:20:50 25° NE 20:24:13 15° E
Meteor 2-1 Rocket 4.3 20:15:17 10° S 20:21:06 85° ESE 20:27:05 10° NNE
Cosmos 1818 3.5 20:16:30 10° SSW 20:21:56 80° SE 20:27:26 10° NE
Cosmos 1980 3.9 20:16:22 10° NNW 20:22:01 60° ENE 20:25:47 21° SE
CZ-2C R/B 4.2 20:18:01 10° NNE 20:22:06 35° E 20:24:29 20° SSE
Cosmos 1356 3.3 20:22:36 10° N 20:26:02 84° E 20:28:00 23° SSE
IRIDIUM 103 4.3 20:24:07 11° S 20:29:05 64° E 20:34:16 10° N
SPOT 5 4.2 20:28:33 18° E 20:30:14 22° ENE 20:33:53 10° N
Cosmos 2266 Rocket 4.4 20:24:16 10° N 20:30:25 46° ENE 20:34:06 23° SE
Cosmos 1634 Rocket 4.3 20:25:35 10° SSW 20:31:50 72° W 20:38:06 10° N
Cosmos 2058 3.7 20:28:10 10° NNW 20:32:14 51° W 20:36:16 10° S
COSMOS 2428 3.5 20:27:45 10° NW 20:33:17 50° WSW 20:38:35 11° S
ARIANE 5 R/B 3.5 20:32:24 25° ESE 20:34:04 34° ENE 20:38:01 10° N
Cosmos 909 Rocket 4.0 20:27:47 10° SSW 20:34:07 85° SE 20:40:38 10° NE
Cosmos 1633 2.8 20:30:51 10° N 20:34:21 47° ENE 20:35:24 35° SE
Terra 3.5 20:33:16 16° E 20:34:49 19° ENE 20:38:08 10° NNE
Cosmos 2344 3.5 20:28:18 10° SW 20:35:47 88° NW 20:43:48 10° NE
Abrixas rocket 3.7 20:35:28 10° WSW 20:35:42 12° WSW 20:35:42 12° WSW
Cosmos 1455 3.9 20:34:20 10° SW 20:37:45 34° WNW 20:41:12 10° N
Meteor 2-3 Rocket 4.1 20:32:12 10° N 20:37:48 49° ENE 20:40:44 26° SE
OBJECT-B 3.3 20:36:14 10° SW 20:38:41 20° W 20:41:09 10° NW
Cosmos-2242 3.6 20:37:39 30° SE 20:38:51 36° E 20:42:50 10° NNE
Cosmos 1140 Rocket 3.7 20:36:41 17° SSE 20:40:13 44° ESE 20:45:04 10° NE
Cosmos 2219 Rocket 3.5 20:36:45 10° NW 20:41:54 36° WSW 20:47:01 10° S
Timation 2 Rocket 4.4 20:37:15 10° S 20:43:24 43° ESE 20:49:19 10° NE
USA 245 3.4 20:44:17 38° ESE 20:45:16 49° ENE 20:48:29 10° N
Spot 2 Rocket 3.8 20:44:16 29° SE 20:46:31 50° ENE 20:51:26 10° N
IRIDIUM 106 4.3 20:42:25 12° S 20:47:21 90° SSE 20:52:37 10° N
Cosmos 2151 2.9 20:48:09 10° N 20:52:28 75° E 20:54:06 37° SSE
Cosmos 2180 Rocket 4.4 20:49:08 10° S 20:55:18 87° E 21:01:29 10° N
Cosmos 405 Rocket 3.9 20:53:18 10° NNW 20:57:05 41° W 20:59:43 17° SSW
BREEZE-M (TANK) 4.3 20:37:51 10° WNW 20:57:20 59° SW 20:59:58 30° SSE
Cosmos 1076 Rocket 4.2 20:55:09 10° NNW 20:59:22 51° W 21:02:10 20° SSW
Cosmos 389 Rocket 3.5 20:59:42 12° SSW 21:02:49 46° WNW 21:06:17 10° N
Cosmos 1655 Rocket 3.9 20:57:13 10° N 21:03:33 88° ENE 21:07:15 27° S
Lacrosse 5 rocket 3.7 21:00:23 10° NW 21:03:42 22° N 21:07:08 10° NE
Landsat 7 4.2 21:03:42 25° S 21:06:22 62° W 21:11:06 10° NNW
Cosmos 1812 Rocket 4.0 21:04:08 14° SSW 21:07:50 63° WNW 21:12:18 10° N
BREEZE M DEB (TANK) 2.5 21:01:09 10° WSW 21:08:50 87° NNW 21:09:52 42° ENE
SPOT 1/Viking Rocket 3.5 21:07:32 33° S 21:10:00 83° WSW 21:15:16 10° NNW
Cosmos 1869 4.0 21:11:03 38° ENE 21:11:03 38° ENE 21:14:15 10° NNE
Cosmos 2237 Rocket 2.4 21:05:01 10° NNW 21:10:37 66° WSW 21:13:12 32° S
IGS 5A 4.5 21:10:48 23° SSW 21:12:56 42° W 21:16:54 10° NNW
Cosmos 1190 Rocket 3.9 21:09:55 24° S 21:13:06 73° ESE 21:18:19 10° NNE
ATLAS 2AS CENTAUR R/B 4.3 21:07:04 10° WSW 21:14:29 42° NW 21:21:43 10° NE
Resurs 01 Rocket 3.0 21:13:40 17° SSW 21:16:32 35° W 21:20:39 10° NNW
Okean 3 Rocket 3.6 21:15:13 10° N 21:19:44 62° ENE 21:20:15 57° ESE
Cosmos 1766 Rocket 3.5 21:16:21 10° N 21:20:40 62° E 21:20:58 60° ESE
COSMOS 2455 3.2 21:20:46 41° ESE 21:21:02 41° ESE 21:26:39 10° NE
CARTOSAT-1 3.4 21:20:55 62° SSE 21:21:37 85° ENE 21:25:58 10° NNW
BREEZE-M DEB (TANK) 4.5 21:16:38 10° W 21:21:45 77° N 21:43:46 10° E
Cosmos 1763 Rocket 4.2 21:17:39 10° N 21:22:23 37° ENE 21:23:15 35° E
Cosmos 2263 Rocket 4.3 21:25:51 11° ENE 21:25:51 11° ENE 21:26:08 10° ENE
Cosmos 2082 4.0 21:24:17 43° ESE 21:24:17 43° ESE 21:29:34 10° NE
Cosmos 2227 Rocket 2.1 21:21:56 18° SSW 21:26:11 81° ESE 21:31:52 10° NNE
Cosmos 676 Rocket 3.9 21:30:06 57° SE 21:30:47 63° ESE 21:35:56 10° NNE
Cosmos 2297 Rocket 2.4 21:27:48 10° SSW 21:33:26 73° WNW 21:39:07 10° NNE
Timation 1 Rocket 4.3 21:35:58 51° SSE 21:36:54 57° ESE 21:42:45 10° NE
Cosmos 2219 3.3 21:32:13 10° SSW 21:37:49 73° WNW 21:43:28 10° NNE
NOSS 3-1 (C) 4.4 21:33:50 10° NW 21:40:57 55° NE 21:44:44 32° ESE
Genesis I 3.8 21:39:40 10° NW 21:43:16 53° WSW 21:43:16 53° WSW
USA 215 3.4 21:48:19 45° S 21:50:04 59° SW 21:56:32 10° WNW
ATLAS 3B R/B 4.4 21:45:46 10° WNW 21:51:07 23° WSW 21:55:03 15° SSW
ERS-1 Rocket 3.1 21:54:28 56° SW 21:55:13 63° WSW 22:00:13 10° NNW
Cosmos 1862 4.2 21:54:00 10° N 21:56:54 44° NNE 21:56:54 44° NNE
H-2A R/B 3.8 21:57:02 10° NNE 22:00:33 61° NNE 22:00:33 61° NNE
SL-16 R/B 2.2 21:59:48 10° NNW 22:05:28 68° WSW 22:06:06 62° SSW
Cosmos 1842 Rocket 4.2 22:06:37 50° NNE 22:06:37 50° NNE 22:10:02 10° NNE
SPOT 5 3.3 22:07:46 47° WSW 22:07:58 47° W 22:12:34 10° NNW
ARIANE 5 R/B 4.1 22:09:56 26° WSW 22:10:32 27° W 22:14:19 10° NW
Terra 2.0 22:12:08 62° W 22:12:08 62° W 22:16:51 10° NNW
Cosmos 921 Rocket 4.3 22:10:17 10° N 22:13:36 33° NE 22:13:36 33° NE
Meteor 1-4 Rocket 4.3 22:15:56 30° NW 22:15:56 30° NW 22:18:16 10° N
Cosmos 2084 Rocket 4.4 22:16:47 42° N 22:16:47 42° N 22:19:57 10° NNE
Cosmos 1850 Rocket 4.5 22:17:41 49° ENE 22:17:41 49° ENE 22:21:44 10° NNE
Cosmos 1745 Rocket 4.0 22:15:14 10° N 22:21:31 61° ENE 22:21:55 60° E
SeaSat 1 3.6 22:18:19 10° NE 22:21:10 32° ENE 22:21:10 32° ENE
Cosmos 1408 Rocket 4.3 22:19:01 10° NNW 22:22:33 49° WNW 22:22:33 49° WNW
Aureole 1 Rocket 4.0 22:33:07 54° NE 22:33:07 54° NE 22:36:51 10° NNE
Cosmos 1943 3.5 22:28:40 10° NNW 22:34:14 56° ENE 22:34:14 56° ENE
S3M 4.0 22:34:13 66° E 22:34:17 67° E 22:40:38 10° NNE
Sich 1 4.5 22:32:39 10° N 22:35:16 32° NNE 22:35:16 32° NNE
SL-08 ROCKET BODY 4.3 22:33:20 10° NNW 22:39:24 73° W 22:39:42 71° WSW
Cosmos 2221 3.7 22:42:18 41° NW 22:42:18 41° NW 22:45:32 10° N
Lacrosse 5 rocket 2.9 22:39:52 10° NW 22:43:43 34° NNE 22:43:43 34° NNE
USA 229 DEB 3.8 22:41:25 10° NW 22:48:45 81° NE 22:50:01 65° ESE
USA 229 3.8 22:41:31 10° NW 22:48:51 80° NE 22:50:08 64° ESE
Cosmos 841 Rocket 3.8 22:48:20 10° NNW 22:52:43 62° NW 22:52:43 62° NW
Spot 4 4.5 22:58:26 55° N 22:58:26 55° N 23:02:15 10° NNW
Cosmos 1386 Rocket 4.4 22:51:43 10° NNW 22:57:41 77° W 22:57:41 77° W
Cosmos 1814 Rocket 4.4 22:58:11 10° NNW 23:02:37 62° NNW 23:02:37 62° NNW
Cosmos 1553 Rocket 4.3 23:03:51 52° W 23:04:29 54° WNW 23:10:28 10° N
Cosmos 2263 Rocket 2.5 23:07:30 60° NNE 23:07:30 60° NNE 23:12:02 10° NNE
NOSS 3-1 (A) 4.0 22:59:09 10° NW 23:06:39 90° SW 23:07:58 68° SE
COSMOS 2455 3.8 23:03:48 24° WSW 23:06:58 43° NW 23:12:43 10° NNE
ALOS 2 4.0 23:10:43 37° N 23:10:43 37° N 23:13:29 10° N
Cosmos 2227 Rocket 4.4 23:06:36 10° W 23:10:56 22° NW 23:15:16 10° N
Cosmos 1603 4.1 23:14:05 10° NNW 23:18:48 56° WNW 23:18:48 56° WNW
Cosmos 1844 Rocket 4.4 23:22:25 21° ENE 23:22:25 21° ENE 23:24:50 10° NE
NOSS 3-1 (C) 4.4 23:24:45 10° NW 23:32:01 49° WSW 23:32:07 49° WSW
Cosmos 2315 Rocket 4.0 23:38:08 78° NW 23:38:08 78° NW 23:44:15 10° N
Cosmos 2184 Rocket 4.4 23:33:15 10° N 23:39:21 53° ENE 23:39:21 53° ENE
